KC1UIX-13 Weather Reports


Display with metric or nautical units.
time (UTC)temp
F
wind
direction
speed
MPH
gust
MPH
rain 1hr
in
rain 24hr
in
rain mn
in
humidity
%
barometer
mb
20260903025017 61 321 0.0 1.0 0.00 0.00 0.00 93 1019.8
20260903024020 61 318 0.0 1.0 0.00 0.00 0.00 92 1019.7
20260903023020 62 318 0.0 1.0 0.00 0.00 0.00 92 1019.9
20260903022038 62 2 0.0 1.0 0.00 0.00 0.00 92 1020.1
20260903021018 62 323 0.0 1.0 0.00 0.00 0.00 92 1020.2
20260903020018 62 352 0.0 0.0 0.00 0.00 0.00 92 1020.3
20260903015018 62 336 0.0 1.0 0.00 0.00 0.00 92 1020.3
20260903014039 62 340 0.0 1.0 0.00 0.00 0.00 92 1020.2
20260903013039 62 341 0.0 2.0 0.00 0.00 0.00 92 1020.1
20260903012018 61 349 0.0 1.0 0.00 0.00 0.00 92 1019.9
20260903011018 61 343 0.0 1.0 0.00 0.00 0.00 92 1019.9
20260903010019 61 339 0.0 1.0 0.00 0.00 0.00 91 1020.0
20260903005019 61 325 0.0 1.0 0.00 0.00 0.00 91 1020.1
20260903004019 61 331 0.0 0.0 0.00 0.00 0.00 91 1020.3
20260903003016 61 306 0.0 1.0 0.00 0.00 0.00 91 1020.3
20260903002020 61 16 0.0 1.0 0.00 0.00 0.00 91 1020.4
20260903001019 61 312 0.0 1.0 0.00 0.00 0.00 90 1020.6
20260903000020 60 329 0.0 2.0 0.00 0.00 0.00 90 1020.6
20260902235017 60 313 0.0 1.0 0.00 0.00 0.00 89 1020.6
20260902234017 61 339 0.0 0.0 0.00 0.00 0.00 89 1020.9
20260902233017 61 333 0.0 1.0 0.00 0.00 0.00 88 1021.0
20260902232018 62 335 0.0 1.0 0.00 0.00 0.00 87 1020.8
20260902231021 62 344 0.0 1.0 0.00 0.00 0.00 86 1020.8
20260902230018 63 344 0.0 1.0 0.00 0.00 0.00 85 1021.1
20260902225018 63 356 0.0 1.0 0.00 0.00 0.00 85 1021.3
20260902224018 64 346 0.0 1.0 0.00 0.00 0.00 84 1021.5
20260902223018 64 8 0.0 1.0 0.00 0.00 0.00 84 1021.7
20260902222018 64 44 0.0 1.0 0.00 0.00 0.00 83 1021.7
20260902221019 64 331 0.0 1.0 0.00 0.00 0.00 83 1021.6
20260902220019 65 254 0.0 1.0 0.00 0.00 0.00 82 1021.7
20260902215019 65 4 0.0 2.0 0.00 0.00 0.00 82 1021.6
20260902214019 65 327 0.0 2.0 0.00 0.00 0.00 81 1021.6
20260902213019 65 19 0.0 2.0 0.00 0.00 0.00 81 1021.6
20260902212020 66 19 0.0 2.0 0.00 0.00 0.00 80 1021.5
20260902211020 66 41 0.0 1.0 0.00 0.00 0.00 79 1021.6
20260902210017 67 343 0.0 2.0 0.00 0.00 0.00 78 1021.7
20260902205017 67 355 0.0 2.0 0.00 0.00 0.00 76 1021.7
20260902204017 67 359 0.0 3.0 0.00 0.00 0.00 78 1022.0
20260902203020 67 19 0.0 4.0 0.00 0.00 0.00 78 1022.1
20260902202020 67 358 0.0 2.0 0.00 0.00 0.00 77 1022.2
20260902201018 67 321 0.0 2.0 0.00 0.00 0.00 77 1022.1
20260902200017 67 293 0.0 1.0 0.00 0.00 0.00 76 1022.4
20260902195018 68 5 0.0 2.0 0.00 0.00 0.00 76 1022.6
20260902194018 68 335 0.0 2.0 0.00 0.00 0.00 75 1022.6
20260902193039 68 352 0.0 3.0 0.00 0.00 0.00 75 1022.6
20260902192039 68 337 0.0 2.0 0.00 0.00 0.00 75 1022.6
20260902191019 68 4 0.0 3.0 0.00 0.00 0.00 75 1022.5
20260902190019 68 359 0.0 3.0 0.00 0.00 0.00 76 1022.4
20260902185019 67 1 0.0 2.0 0.00 0.00 0.00 77 1022.4
20260902184019 67 357 0.0 2.0 0.00 0.00 0.00 77 1022.6
20260902183019 66 356 0.0 2.0 0.00 0.00 0.00 78 1022.7
20260902182016 66 6 0.0 3.0 0.00 0.00 0.00 78 1022.7
20260902181017 66 2 1.0 3.0 0.00 0.00 0.00 78 1022.8
20260902180020 66 7 1.0 3.0 0.00 0.00 0.00 78 1023.0
20260902175020 66 10 1.0 2.0 0.00 0.00 0.00 77 1022.8
20260902174018 67 8 1.0 3.0 0.00 0.00 0.00 76 1022.7
20260902173017 67 7 0.0 2.0 0.00 0.00 0.00 76 1022.8
20260902172018 67 5 0.0 2.0 0.00 0.00 0.00 77 1022.9
20260902171018 67 354 0.0 3.0 0.00 0.00 0.00 77 1022.8
20260902170018 67 4 0.0 3.0 0.00 0.00 0.00 77 1022.6
20260902165021 67 7 0.0 4.0 0.00 0.00 0.00 77 1022.8
20260902164018 67 353 0.0 3.0 0.00 0.00 0.00 78 1023.0
20260902163038 67 2 0.0 3.0 0.00 0.00 0.00 77 1023.1
20260902162039 67 305 0.0 2.0 0.00 0.00 0.00 77 1023.2
20260902161019 67 2 0.0 3.0 0.00 0.00 0.00 77 1023.4
20260902160019 67 9 0.0 3.0 0.00 0.00 0.00 76 1023.6
20260902155019 67 11 1.0 3.0 0.00 0.00 0.00 76 1023.6
20260902154017 67 355 0.0 3.0 0.00 0.00 0.00 75 1023.7
20260902153020 67 357 0.0 3.0 0.00 0.00 0.00 77 1023.6
20260902152019 67 5 1.0 3.0 0.00 0.00 0.00 77 1023.5
20260902151020 67 9 1.0 3.0 0.00 0.00 0.00 77 1023.4
20260902150040 67 5 0.0 3.0 0.00 0.00 0.00 78 1023.2
20260902145020 67 330 1.0 4.0 0.00 0.00 0.00 79 1022.9
20260902144017 66 341 1.0 3.0 0.00 0.00 0.00 81 1022.8
20260902143017 66 5 0.0 3.0 0.00 0.00 0.00 82 1022.8
20260902142018 65 18 0.0 2.0 0.00 0.00 0.00 83 1022.7
20260902141018 65 1 1.0 4.0 0.00 0.00 0.00 85 1022.6
20260902140018 64 7 1.0 3.0 0.00 0.00 0.00 88 1022.4
20260902135038 64 22 0.0 3.0 0.00 0.00 0.00 92 1022.4
20260902134038 63 17 1.0 3.0 0.00 0.00 0.00 93 1022.5
20260902133018 63 354 0.0 2.0 0.00 0.00 0.00 94 1022.3
20260902132039 63 341 0.0 3.0 0.00 0.00 0.00 94 1022.4
20260902131019 63 353 0.0 1.0 0.00 0.00 0.00 95 1022.4
20260902130019 62 23 0.0 2.0 0.00 0.00 0.00 95 1022.4
20260902125019 62 21 0.0 2.0 0.00 0.00 0.00 95 1022.3
20260902124039 62 20 0.0 2.0 0.00 0.00 0.00 95 1022.3
20260902123043 62 20 0.0 1.0 0.00 0.00 0.00 95 1022.2
20260902122019 62 36 0.0 2.0 0.00 0.00 0.00 95 1022.3
20260902121017 62 16 1.0 2.0 0.00 0.00 0.00 95 1022.4
20260902120016 62 14 0.0 2.0 0.00 0.00 0.00 95 1022.3
20260902115057 62 21 0.0 2.0 0.00 0.00 0.00 95 1022.2
20260902114017 61 18 0.0 2.0 0.00 0.00 0.00 95 1022.2
20260902113020 61 8 0.0 2.0 0.00 0.00 0.00 95 1022.2
20260902112021 61 6 0.0 2.0 0.00 0.00 0.00 95 1022.1
20260902111017 61 18 0.0 2.0 0.00 0.00 0.00 95 1021.9
20260902110018 61 344 0.0 2.0 0.00 0.00 0.00 95 1021.7
20260902105018 61 6 0.0 2.0 0.00 0.00 0.00 95 1021.7
20260902104018 61 321 0.0 1.0 0.00 0.00 0.00 95 1021.7
20260902103018 61 343 0.0 2.0 0.00 0.00 0.00 95 1021.8
20260902102019 61 21 0.0 2.0 0.00 0.00 0.00 95 1021.8
20260902101039 61 344 0.0 1.0 0.00 0.00 0.00 95 1021.7
20260902100039 61 346 0.0 2.0 0.00 0.00 0.00 95 1021.7
20260902095019 61 351 0.0 2.0 0.00 0.00 0.00 95 1021.7
20260902094040 61 23 0.0 3.0 0.00 0.00 0.00 95 1021.5
20260902093019 61 18 0.0 1.0 0.00 0.00 0.00 95 1021.3
20260902092017 61 18 0.0 1.0 0.00 0.00 0.00 95 1021.3
20260902091019 61 27 0.0 1.0 0.00 0.00 0.00 95 1021.3
20260902090040 61 335 0.0 1.0 0.00 0.00 0.00 95 1021.3
20260902085020 61 16 0.0 1.0 0.00 0.00 0.00 95 1021.3
20260902084037 61 8 0.0 1.0 0.00 0.00 0.00 95 1021.2
20260902083017 61 6 0.0 1.0 0.00 0.00 0.00 95 1021.3
20260902082017 61 346 0.0 1.0 0.00 0.00 0.00 95 1021.3
20260902081038 61 7 0.0 2.0 0.00 0.00 0.00 95 1021.4
20260902080018 61 358 1.0 2.0 0.00 0.00 0.00 95 1021.3
20260902075019 61 344 0.0 2.0 0.00 0.00 0.00 95 1021.1
20260902074018 61 7 0.0 1.0 0.00 0.00 0.00 95 1021.0
20260902073018 61 0.0 0.0 0.00 0.00 0.00 95 1020.8
20260902072018 61 290 1.0 2.0 0.00 0.00 0.00 95 1020.9
20260902071019 61 336 1.0 2.0 0.00 0.00 0.00 95 1020.9
20260902070019 61 354 1.0 2.0 0.00 0.00 0.00 95 1020.9
20260902065039 61 337 1.0 2.0 0.00 0.00 0.00 95 1020.9
20260902064019 61 358 0.0 2.0 0.00 0.00 0.00 95 1020.8
20260902063019 61 357 1.0 2.0 0.00 0.00 0.00 95 1020.8
20260902062019 61 320 0.0 1.0 0.00 0.00 0.00 95 1020.9
20260902061019 61 315 0.0 1.0 0.00 0.00 0.00 95 1021.1
20260902060017 61 338 0.0 2.0 0.00 0.00 0.00 94 1021.0
20260902055017 61 324 0.0 1.0 0.00 0.00 0.00 94 1020.9
20260902054021 61 350 1.0 2.0 0.00 0.00 0.00 94 1020.8
20260902053017 61 8 0.0 1.0 0.00 0.00 0.00 94 1020.6
20260902052018 61 345 0.0 1.0 0.00 0.00 0.00 94 1020.5
20260902051017 61 3 0.0 1.0 0.00 0.00 0.00 94 1020.4
20260902050018 61 356 0.0 1.0 0.00 0.00 0.00 94 1020.2
20260902045037 61 7 0.0 1.0 0.00 0.00 0.00 94 1020.1
20260902044018 61 346 0.0 1.0 0.00 0.00 0.00 94 1020.1
20260902043018 61 351 0.0 1.0 0.00 0.00 0.00 94 1020.0
20260902042038 61 350 0.0 2.0 0.00 0.00 0.00 94 1019.9
20260902041018 61 359 0.0 2.0 0.00 0.00 0.00 94 1019.9
20260902040019 61 351 0.0 1.0 0.00 0.00 0.00 94 1019.9
20260902035039 61 356 0.0 2.0 0.00 0.00 0.00 94 1019.9
20260902034019 61 315 1.0 3.0 0.00 0.00 0.00 94 1019.7
20260902033037 61 326 1.0 3.0 0.00 0.00 0.00 94 1019.6
20260902032019 61 351 0.0 1.0 0.00 0.00 0.00 93 1019.3
20260902031019 61 350 0.0 1.0 0.00 0.00 0.00 93 1019.3
20260902030019 61 327 0.0 2.0 0.00 0.00 0.00 93 1019.3